This demonstration page uses our WeatherBlox Daily Observations layout. Learn more.

Hourly Observations for August 29, 2017

Temp ( °F °C ) Dew Point ( °F °C ) Humidity (%) Winds ( mph kmh ) Pressure ( in mb ) Visibility ( mi km ) Precip ( " mm )
12:15 am 00:15 Clear 59 15 56 13.1 89 89 SE 5 7 30.09 1019 10 16.09344 0 0
12:35 am 00:35 Clear 58 14.3 55 12.6 90 90 SE 5 7 30.09 1019 10 16.09344 0 0
12:55 am 00:55 Clear 59 15 56 13.1 89 89 Calm 30.09 1019 10 16.09344 0 0
1:15 am 01:15 Clear 59 15 56 13.2 89 89 Calm 30.09 1019 10 16.09344 0 0
1:35 am 01:35 Clear 59 15.2 55 12.9 86 86 Calm 30.09 1019 10 16.09344 0 0
1:55 am 01:55 Clear 57 14.1 55 12.6 91 91 SSW 3 6 30.09 1019 10 16.09344 0 0
2:15 am 02:15 Clear 59 15.1 54 12.3 83 83 Calm 30.09 1019 10 16.09344 0 0
2:35 am 02:35 Clear 57 14 54 12 88 88 Calm 30.09 1019 10 16.09344 0 0
2:55 am 02:55 Clear 58 14.2 54 12.2 88 88 Calm 30.09 1019 10 16.09344 0 0
3:15 am 03:15 Clear 58 14.6 54 12.4 87 87 Calm 30.09 1019 10 16.09344 0 0
3:35 am 03:35 Clear 58 14.2 54 12 87 87 Calm 30.09 1019 10 16.09344 0 0
3:55 am 03:55 Clear 57 14 54 12.1 88 88 Calm 30.09 1019 10 16.09344 0 0
4:15 am 04:15 Clear 57 13.8 54 12 89 89 Calm 30.09 1019 10 16.09344 0 0
4:35 am 04:35 Clear 56 13.5 53 11.8 90 90 Calm 30.12 1020 10 16.09344 0 0
4:55 am 04:55 Clear 56 13.1 53 11.8 92 92 Calm 30.12 1020 10 16.09344 0 0
5:15 am 05:15 Clear 55 12.9 53 11.6 92 92 Calm 30.12 1020 10 16.09344 0 0
5:35 am 05:35 Clear 55 13 53 11.6 91 91 Calm 30.12 1020 10 16.09344 0 0
5:55 am 05:55 Clear 55 12.7 52 11.2 91 91 Calm 30.12 1020 10 16.09344 0 0
6:15 am 06:15 Clear 54 12.1 52 11.1 94 94 Calm 30.12 1020 10 16.09344 0 0
6:35 am 06:35 Clear 54 12.1 52 11.3 95 95 Calm 30.12 1020 10 16.09344 0 0
6:55 am 06:55 Clear 54 12 52 11.2 95 95 Calm 30.12 1020 10 16.09344 0 0
7:15 am 07:15 Sunny 53 11.8 52 11 95 95 Calm 30.12 1020 7 11.265408 0 0
7:35 am 07:35 Sunny 53 11.8 52 11.1 96 96 Calm 30.12 1020 7 11.265408 0 0
7:55 am 07:55 Sunny 55 12.6 53 11.6 94 94 Calm 30.12 1020 10 16.09344 0 0
8:15 am 08:15 Sunny 57 14.1 55 13 93 93 Calm 30.09 1019 10 16.09344 0 0
8:35 am 08:35 Sunny 60 15.7 56 13.6 87 87 Calm 30.09 1019 10 16.09344 0 0
8:55 am 08:55 Sunny 62 16.6 57 14.1 85 85 Calm 30.09 1019 10 16.09344 0 0
9:15 am 09:15 Sunny 63 17.2 58 14.6 85 85 Calm 30.06 1018 10 16.09344 0 0
9:35 am 09:35 Sunny 65 18.2 58 14.6 80 80 SSE 3 6 30.06 1018 10 16.09344 0 0
9:55 am 09:55 Sunny 66 19 58 14.5 75 75 S 3 6 30.09 1019 10 16.09344 0 0
10:15 am 10:15 Sunny 67 19.7 58 14.7 73 73 S 5 7 30.09 1019 10 16.09344 0 0
10:35 am 10:35 Sunny 69 20.7 59 14.9 70 70 S 3 6 30.09 1019 10 16.09344 0 0
10:55 am 10:55 Sunny 70 21.1 58 14.6 67 67 Calm 30.06 1018 10 16.09344 0 0
11:15 am 11:15 Sunny 71 21.5 58 14.5 65 65 SE 5 7 30.06 1018 10 16.09344 0 0
11:35 am 11:35 Sunny 72 22.1 57 13.9 60 60 SSE 3 6 30.06 1018 10 16.09344 0 0
11:55 am 11:55 Sunny 73 22.5 58 14.7 61 61 S 5 7 30.06 1018 10 16.09344 0 0
12:15 pm 12:15 Sunny 73 23 57 13.8 56 56 ESE 6 9 30.03 1017 10 16.09344 0 0
12:35 pm 12:35 Sunny 74 23.1 58 14.5 59 59 SSE 5 7 30.03 1017 10 16.09344 0 0
12:55 pm 12:55 Sunny 74 23.6 57 13.8 54 54 SE 6 9 30.03 1017 10 16.09344 0 0
1:15 pm 13:15 Sunny 75 23.7 56 13.2 52 52 S 3 6 30.03 1017 10 16.09344 0 0
1:35 pm 13:35 Sunny 76 24.3 58 14.3 54 54 ESE 7 11 30.03 1017 10 16.09344 0 0
1:55 pm 13:55 Sunny 76 24.4 57 13.9 52 52 S 6 9 30 1016 10 16.09344 0 0
2:15 pm 14:15 Sunny 76 24.6 56 13.3 49 49 SE 7 11 30 1016 10 16.09344 0 0
2:35 pm 14:35 Sunny 77 25 56 13.6 49 49 SSE 8 13 30 1016 10 16.09344 0 0
2:55 pm 14:55 Sunny 77 25.2 56 13.4 48 48 SSE 7 11 30 1016 10 16.09344 0 0
3:15 pm 15:15 Sunny 78 25.4 57 14.1 50 50 SE 5 7 30 1016 10 16.09344 0 0
3:35 pm 15:35 Sunny 78 25.8 56 13.5 47 47 SE 6 9 29.97 1015 10 16.09344 0 0
3:55 pm 15:55 Sunny 78 25.7 57 14 48 48 SSE 6 9 29.97 1015 10 16.09344 0 0
4:15 pm 16:15 Sunny 78 25.8 58 14.6 50 50 ESE 8 13 29.97 1015 10 16.09344 0 0
4:35 pm 16:35 Sunny 78 25.8 59 14.8 51 51 SE 8 13 29.97 1015 10 16.09344 0 0
4:55 pm 16:55 Sunny 79 26 57 13.8 47 47 SSE 6 9 29.97 1015 10 16.09344 0 0
5:15 pm 17:15 Sunny 78 25.7 57 14 48 48 ESE 8 13 29.97 1015 10 16.09344 0 0
5:35 pm 17:35 Sunny 78 25.7 58 14.3 49 49 ESE 6 9 29.97 1015 10 16.09344 0 0
5:55 pm 17:55 Sunny 78 25.4 58 14.6 51 51 ESE 8 13 29.97 1015 10 16.09344 0 0
6:15 pm 18:15 Sunny 77 25 59 15.1 54 54 E 8 13 29.97 1015 10 16.09344 0 0
6:35 pm 18:35 Sunny 76 24.5 58 14.5 54 54 E 6 9 29.97 1015 10 16.09344 0 0
6:55 pm 18:55 Sunny 75 23.8 59 15.2 59 59 ESE 6 9 30 1016 10 16.09344 0 0
7:15 pm 19:15 Sunny 73 23 60 15.7 64 64 ESE 6 9 30 1016 10 16.09344 0 0
7:35 pm 19:35 Sunny 71 21.8 61 16 70 70 ESE 6 9 30 1016 10 16.09344 0 0
7:55 pm 19:55 Sunny 69 20.8 61 16.2 75 75 ESE 6 9 30 1016 10 16.09344 0 0
8:15 pm 20:15 Clear 67 19.7 62 16.6 82 82 ESE 6 9 30.03 1017 10 16.09344 0 0
8:35 pm 20:35 Clear 66 19 61 16.1 83 83 ESE 6 9 30.03 1017 10 16.09344 0 0
8:55 pm 20:55 Clear 65 18.5 61 16 85 85 ESE 5 7 30.03 1017 10 16.09344 0 0
9:15 pm 21:15 Clear 64 17.7 60 15.4 86 86 ESE 6 9 30.03 1017 10 16.09344 0 0
9:35 pm 21:35 Clear 63 17.3 59 15 86 86 SE 7 11 30.03 1017 10 16.09344 0 0
9:55 pm 21:55 Clear 62 16.9 59 14.8 88 88 ESE 8 13 30.03 1017 10 16.09344 0 0
10:15 pm 22:15 Clear 63 17 59 15 88 88 ESE 6 9 30.03 1017 10 16.09344 0 0
10:35 pm 22:35 Clear 62 16.5 58 14.7 89 89 SE 6 9 30.06 1018 10 16.09344 0 0
10:55 pm 22:55 Clear 61 16.1 58 14.6 91 91 ESE 8 13 30.06 1018 10 16.09344 0 0
11:15 pm 23:15 Clear 61 16.3 58 14.6 90 90 SE 6 9 30.06 1018 10 16.09344 0 0
11:35 pm 23:35 Clear 62 16.5 57 14.1 86 86 SSE 6 9 30.06 1018 10 16.09344 0 0
11:55 pm 23:55 Clear 61 16 57 13.7 86 86 SE 6 9 30.06 1018 10 16.09344 0 0

Powered by AerisWeather